星链-2755 (STARLINK-2755 )

导读 | 豆包AI

STARLINK-2755是美国SpaceX公司星链(Starlink)星座的一员,于2021年5月9日发射入轨,属于星链一代组网卫星。它是一款低轨通信卫星,采用平板设计搭载太阳能电池阵,配备氪工质霍尔推进器,支持Ku/Ka频段通信,具备自主避撞能力,设计寿命5-7年,主要为全球提供宽带互联网接入服务,退役后会主动离轨再入大气层烧毁。

基本信息
目录编号:
48479
目录名称:
STARLINK-2755
国际标识:
2021-040BD
轨道中心:
EARTH
卫星名称:
星链-2755
卫星全名:
星链-2755 (STARLINK-2755 )
卫星状态:
在轨 (已飞行1817 天)
发射日期:
2021-05-09 UTC
国别 :
美国 (US)
星等 :
--
轨道信息
数据来源 国际轨道数据
星历时间: 2026-04-30T01:55:08+0800
20小时前
查看轨道信息
半长轴: 6853.366km
偏心率: 0.0000795
轨道倾角: 53.160°
近地点辐角 74.734°
升交点赤经 313.822°
平近点角 285.374°
近地点: 474.684km
远地点: 475.774km
周期: 94.106分钟
每日圈数: 15.301954
详细信息
固有亮度:
5
最大亮度:
2.5
卫星平台:
Starlink V1.0
覆盖范围:
全球
运营商:
太空探索技术公司
运营商所在国:
美国
制造商(研发单位):
太空探索技术公司
制造商所在国:
美国
使用方式:
暂无
卫星简介
星链(Starlink)计划是由太空探索技术公司(SpaceX)提出的一个巨型低轨卫星互联网星座项目,计划在2019年至2024年间在太空搭建由约1.2万颗卫星组成的“星链”网络,其中1584颗将部署在地球上空550千米处的近地轨道,并从2020年开始工作。该卫星仍在工作。
2D轨道图
3D轨道图
轨道高度分析图
轨道倾角分析图
轨道综合分析图
查看轨道综合分析图